Home   Weather   Verden (Aller)   Past weeks

Flag for Germany Past Weather in Verden (Aller), Lower Saxony, Germany — Yesterday and Last 2 Weeks

Now
63 °F

Partly sunny.


Feels Like: 63 °F
Forecast: 48 / 63 °F
Wind: 14 mph from Southwest

Location: Bremen Airport

Current Time: Sep 30, 2016 at 1:58:13 PM

Latest Report: Sep 30, 2016 at 1:20 PM


Visibility: N/A

Pressure: 29.89 "Hg

Humidity: 68%

Dew Point: 52 °F

Location of Verden (Aller)Location

Past Weather in Verden (Aller) — Graph

°F

Verden (Aller) Temperature Yesterday

Maximum temperature yesterday: 72 °F (at 12:20 PM)
Minimum temperature yesterday: 55 °F (at 11:20 PM)
Average temperature yesterday: 64 °F

High & Low Weather Summary for the Past Weeks

 TemperatureHumidityPressure
High81 °F (Sep 15, 2:20 PM)100% (Sep 17, 12:50 AM)30.30 "Hg (Sep 17, 12:50 AM)
Low45 °F (Sep 21, 6:50 AM)32% (Sep 15, 4:50 PM)29.80 "Hg (Sep 29, 5:50 PM)
Average61 °F75%30.09 "Hg
* Reported Sep 15 12:20 PM — Sep 30 12:20 PM, Verden (Aller), Weather by CustomWeather, © 2016

Note: Actual official high and low records may vary slightly from our data, if they occured in-between our weather recording intervals... More about our weather records

Advertising

Verden (Aller) Weather History for the Previous 24 Hours

Scroll right to see more
 ConditionsComfort  
Time TempWeatherWind HumidityBarometerVisibility
12:20 PM
Fri, Sep 30
61 °FBroken clouds.13 mph77%29.89 "HgN/A
11:50 AM61 °FBroken clouds.13 mph83%29.89 "HgN/A
11:20 AM59 °FBroken clouds.9 mph88%29.89 "HgN/A
10:50 AM59 °FBroken clouds.10 mph88%29.89 "HgN/A
10:20 AM57 °FBroken clouds.12 mph94%29.89 "HgN/A
9:50 AM57 °FBroken clouds.9 mph94%29.89 "HgN/A
9:20 AM57 °FPartly sunny.9 mph94%29.89 "HgN/A
8:50 AM55 °FBroken clouds.9 mph100%29.86 "HgN/A
8:20 AM55 °FPartly sunny.9 mph94%29.86 "HgN/A
7:50 AM55 °FPartly sunny.9 mph94%29.86 "HgN/A
7:20 AM55 °FPassing clouds.9 mph94%29.86 "Hg5 mi
6:50 AM55 °FPartly cloudy.8 mph94%29.86 "Hg5 mi
6:20 AM55 °FClear.7 mph94%29.86 "Hg6 mi
5:50 AM55 °FClear.6 mph94%29.86 "Hg10 mi
5:20 AM55 °FClear.7 mph94%29.83 "Hg10 mi
4:50 AM55 °FClear.8 mph94%29.86 "Hg10 mi
4:20 AM57 °FClear.9 mph88%29.86 "Hg10 mi
3:50 AM57 °FClear.10 mph94%29.86 "Hg10 mi
3:20 AM57 °FLight rain. Clear.10 mph94%29.86 "HgN/A
2:50 AM55 °FClear.9 mph100%29.86 "Hg10 mi
2:20 AM55 °FPassing clouds.9 mph100%29.86 "HgN/A
1:50 AM55 °FClear.9 mph94%29.86 "Hg10 mi
1:20 AM55 °FClear.10 mph94%29.86 "Hg10 mi
12:50 AM55 °FClear.9 mph100%29.86 "Hg10 mi
12:20 AM55 °FClear.9 mph94%29.86 "Hg10 mi
11:50 PM
Thu, Sep 29
55 °FClear.10 mph94%29.86 "Hg10 mi
11:20 PM55 °FPassing clouds.12 mph94%29.86 "HgN/A
10:50 PM57 °FPartly cloudy.12 mph88%29.86 "HgN/A
10:20 PM57 °FPassing clouds.12 mph94%29.86 "HgN/A
9:50 PM57 °FLight rain. Passing clouds.13 mph94%29.86 "HgN/A
9:20 PM57 °FLight rain. Passing clouds.14 mph94%29.83 "HgN/A
8:50 PM57 °FLight rain. Passing clouds.13 mph94%29.83 "HgN/A
8:20 PM57 °FLight rain. Passing clouds.15 mph94%29.86 "Hg2 mi
7:50 PM61 °FLight rain. Passing clouds.21 mph94%29.83 "Hg2 mi
7:20 PM63 °FPassing clouds.21 mph83%29.83 "HgN/A
6:50 PM66 °FPartly sunny.22 mph68%29.80 "HgN/A
6:20 PM66 °FBroken clouds.20 mph68%29.80 "HgN/A
5:50 PM66 °FPartly sunny.21 mph68%29.80 "HgN/A
5:20 PM66 °FPartly sunny.20 mph68%29.83 "HgN/A
4:50 PM66 °FPartly sunny.21 mph68%29.83 "HgN/A
4:20 PM66 °FBroken clouds.22 mph68%29.83 "HgN/A
3:50 PM66 °FPartly sunny.24 mph73%29.86 "HgN/A
3:20 PM68 °FPartly sunny.24 mph64%29.83 "HgN/A
2:50 PM68 °FPartly sunny.23 mph64%29.86 "HgN/A
2:20 PM68 °FPartly sunny.25 mph64%29.86 "HgN/A
1:50 PM70 °FPartly sunny.20 mph60%29.86 "HgN/A
1:20 PM70 °FPartly sunny.22 mph57%29.89 "HgN/A
Weather by CustomWeather, © 2016

See weather overviewHow to use our weather pages